Regional Weather Roundup
Issued by NWS

Home | Current Version | Previous Version | Graphics & Text | Print | Product List | Glossary On
Versions: 1 2 3 4 5 6 7 8 9 10 11 12 13 14 15 16 17 18 19 20 21 22 23 24 25 26 27 28 29 30 31 32 33 34 35 36 37 38 39 40 41 42 43 44 45 46 47 48 49 50
000
ASUS43 KMKX 250400
RWRWI

WISCONSIN REGIONAL WEATHER ROUNDUP
NATIONAL WEATHER SERVICE MILWAUKEE/SULLIVAN WI
1100 PM CDT WED AUG 24 2016

NOTE: "FAIR" INDICATES FEW OR NO CLOUDS BELOW 12,000 FEET WITH NO
SIGNIFICANT WEATHER AND/OR OBSTRUCTIONS TO VISIBILITY.

WIZ001-002-006>008-014>016-023>028-250500-
NORTHWEST WISCONSIN

CITY           SKY/WX    TMP DP  RH WIND       PRES   REMARKS
SUPERIOR ARPT  CLOUDY    64  57  78 W5        29.93R
ASHLAND        CLOUDY    62  57  83 SW5       29.93R
HAYWARD        PTCLDY    61  58  90 CALM      29.96S
SIREN          CLOUDY    65  57  74 W6        29.97S
CUMBERLAND     MOCLDY    63  54  72 W6        29.98R
RICE LAKE      MOCLDY    62  56  82 W3        29.99R
CHETEK         NOT AVBL
LADYSMITH      PTCLDY    65  58  77 W5        29.98S
EAU CLAIRE     NOT AVBL
MENOMONIE      CLOUDY    66  58  73 W5        29.98R
NEW RICHMOND   CLOUDY    63  57  80 W7        29.99S
OSCEOLA        CLOUDY    64  59  85 W3        30.01S
$$

WIZ003>005-009-010-017-018-250500-
NORTH CENTRAL WISCONSIN

CITY           SKY/WX    TMP DP  RH WIND       PRES   REMARKS
MANITOWISH WTR NOT AVBL
ARBOR VITAE    PTCLDY    65  59  82 W6        29.95S
WOODRUFF       PTCLDY    65  59  82 W6        29.95S
RHINELANDER    MOCLDY    63  59  87 W3        29.96S
EAGLE RIVER    MOCLDY    65  62  90 W5        29.94S
LAND O LAKES   PTCLDY    64  62  93 CALM      29.95S
PHILLIPS       CLOUDY    62  58  86 CALM      29.96R
TOMAHAWK       PTCLDY    62  59  91 W3        29.96S
MEDFORD        CLOUDY    64  62  93 W7        29.96S
MERRILL        MOCLDY    66  63  91 CALM      29.97R
$$

WIZ029-030-035-036-043>047-250500-
CENTRAL WISCONSIN

CITY           SKY/WX    TMP DP  RH WIND       PRES   REMARKS
WAUSAU         PTCLDY    68  64  87 NW3       29.94S
MOSINEE        CLOUDY    64  64 100 SW6       29.97S
MARSHFIELD     CLOUDY    67  63  87 W7        29.96S
STEVENS POINT  CLOUDY    66  65  97 CALM      29.96S
WAUPACA        CLOUDY    71  70  96 CALM      29.95S
WAUTOMA        PTCLDY    68  67  96 CALM      29.96S
WISC RAPIDS    CLOUDY    68  67  96 W3        29.97S
CAMP DOUGLAS   NOT AVBL
$$

WIZ011>013-019>022-031-037>040-048>050-250500-
NORTHEAST WISCONSIN

CITY           SKY/WX    TMP DP  RH WIND       PRES   REMARKS
ANTIGO         PTCLDY    64  64  99 CALM      29.96S
SHAWANO        MOCLDY    70  66  88 SW3       29.94S
OCONTO         NOT AVBL
STURGEON BAY   CLOUDY    72  67  84 W7        29.91F
GREEN BAY      CLOUDY    67  67 100 W5        29.93F
MANITOWOC      NOT AVBL
APPLETON       MOCLDY    70  70 100 VRB5      29.94S
CLINTONVILLE   PTCLDY    66  64  94 W5        29.94S
OSHKOSH        CLOUDY    72  69  90 W5        29.94S
$$

WIZ032>034-041-042-053>061-250500-
SOUTHWEST WISCONSIN

CITY           SKY/WX    TMP DP  RH WIND       PRES   REMARKS
LA CROSSE      CLOUDY    72  32  23 NW8       29.98R
SPARTA         CLOUDY    65  65 100 CALM      29.98R
VIROQUA        CLOUDY    68  66  93 W5        30.00R
BOSCOBEL       CLOUDY    72  70  93 CALM      29.98R
PRAIRIE DU CHI CLOUDY    73  68  84 NW3       29.98R
PLATTEVILLE    CLOUDY    73  73 100 W3        29.99R
$$

WIZ056-057-062-063-064-067-068-250500-
SOUTH CENTRAL WISCONSIN

CITY           SKY/WX    TMP DP  RH WIND       PRES   REMARKS
REEDSBURG      NOT AVBL
BARABOO/DELLS  PTCLDY    71  67  87 W3        29.97R
LONE ROCK      NOT AVBL
MINERAL POINT  CLOUDY    73  72  94 NW3       29.98R FOG
MADISON        MOCLDY    75  72  90 NW5       29.96R
MIDDLETON      MOCLDY    75  74  96 W3        29.97S
WATERTOWN      CLOUDY    73  73 100 CALM      29.95S
MONROE         CLOUDY    73  72  94 W6        29.97S
JANESVILLE     CLOUDY    77  73  88 W3        29.95
$$

WIZ051-052-058>065-066-070>072-250500-
SOUTHEAST WISCONSIN

CITY           SKY/WX    TMP DP  RH WIND       PRES   REMARKS
MILWAUKEE      CLOUDY    80  72  76 CALM      29.94R HX  84
WAUKESHA       CLOUDY    72  72 100 CALM      29.96S
MILWAUKEE/TIMM DRIZZLE   75  70  83 CALM      29.95R
RACINE         CLOUDY    77  71  82 SW6       29.95F
BURLINGTON     CLOUDY    71  70  95 SW6       29.95S
KENOSHA        MOCLDY    76  72  87 SW7       29.95S
FOND DU LAC    CLOUDY    71  69  93 W5        29.95R
SHEBOYGAN      PTCLDY    69  68  96 SW5       29.94S
WEST BEND      CLOUDY    72  70  94 CALM      29.95S
JUNEAU         CLOUDY    71  69  95 CALM      29.96S
$$

LSZ147-162-250500-
LAKE SUPERIOR

STATION/POSITION TIME  TEMP    WIND        PRES    WAVE
                       AIR SEA DIR/SP/G            HT/PER
                 (UTC) (F)     (DEG/KT/KT) (MB)    (FT/S)
W MID LAKE BUOY  0250   71 69  260/ 16/ 17 1009.5R   2/ 4
DEVILS ISLAND    0300   70     270/ 16/ 17 1011.4R
PORT WING        0300   72     240/  8/ 11 1012.9R
SAXON HARBOR     0300   70     190/  7/  9 1012.5R
$$

LMZ867-665-643>646-250500-
LAKE MICHIGAN

STATION/POSITION TIME  TEMP    WIND        PRES    WAVE
                       AIR SEA DIR/SP/G            HT/PER
                 (UTC) (F)     (DEG/KT/KT) (MB)    (FT/S)
CHAMBERS ISLAND  0300   73     220/  6/ 10 1012.5R
S GREEN BAY BUOY 0300   74 73  240/ 10/ 12 1012.9R
N MID LAKE BUOY  0250   71 70  230/ 12/ 14 1011.1R   5/ 7
NORTHPORT PIER   0300   71     240/  2/  4 1012.2R
SISTER BAY       0307   74     250/  9/ 10   N/A
ALGOMA LAKESHORE 0200          260/  5/  8   N/A
KEWAUNEE LAKESHO 0300   72     290/  2/  3 1012.9R
SHEBOYGAN LAKESH 0300   75     290/  5/  6 1012.9R
PORT WASHINGTON  0300   65     200/  2/  5 1014.2F
ATWATER BUOY     0300   64 46  160/  6/  8   N/A
MILWAUKEE LAKESH 0310   75     110/  2/  2   N/A
S MID LAKE BUOY  0250   75 75  190/ 10/ 12 1013.3R   1/ 4
KENOSHA   LAKESH 0300   76     190/  5/  6 1013.9R
$$

TC  - TEMPERATURE IN CELSIUS
VSB - VISIBILITY IN STATUTE MILES
WCI - WIND CHILL INDEX
HX  - HEAT INDEX





USA.gov is the U.S. government's official web portal to all federal, state and local government web resources and services.